Location: Winthrop
(48.4780°N, 120.1850°W)
Time: 05:09:55
(UTC-08:00)

Vanguard 1 Rocket - Pass Details

Date: 04 December 2023
Orbit: 654 x 4218 km, 34.3° (Epoch: 24 February)

Event Time Altitude Azimuth Distance (km) Brightness Sun altitude
Rises 07:09:58 0° 251° (WSW) 7,659 11.7 -4.4°
Reaches altitude 10° 07:16:13 10° 246° (WSW) 6,125 11.3 -3.5°
Maximum altitude 07:31:15 40° 186° (S) 2,734 10.1 -1.3°
Drops below altitude 10° 07:39:32 10° 119° (ESE) 3,423 12.6 -0.2°
Sets 07:41:59 0° 112° (ESE) 4,082 12.8 0.1°
